This is the latest recevied weather packets stored in our database for station/object N7CEE. If no packets are shown the sender has not sent any weather packets the latest 10 day(s).
| Time | Temp. | Humidity | Pressure | Rain* | Wind** | Luminosity | Snow |
|---|---|---|---|---|---|---|---|
| 1777516887 | 12.78° C | 22% | 1022.5 hPa | 0 mm | - | 0 W/m² | - |
| 1777516584 | 13.33° C | 21% | 1022.5 hPa | 0 mm | - | 0 W/m² | - |
| 1777516280 | 13.33° C | 21% | 1022.8 hPa | 0 mm | - | 0 W/m² | - |
| 1777515976 | 13.33° C | 21% | 1022.6 hPa | 0 mm | - | 0 W/m² | - |
| 1777515673 | 13.89° C | 21% | 1022.3 hPa | 0 mm | - | 1 W/m² | - |
| 1777515370 | 13.89° C | 20% | 1022.4 hPa | 0 mm | - | 2 W/m² | - |
| 1777515066 | 14.44° C | 20% | 1022.4 hPa | 0 mm | - | 3 W/m² | - |
| 1777514762 | 14.44° C | 20% | 1022.5 hPa | 0 mm | - | 6 W/m² | - |
| 1777514460 | 14.44° C | 19% | 1022.3 hPa | 0 mm | - | 10 W/m² | - |
| 1777514156 | 14.44° C | 19% | 1022.1 hPa | 0 mm | - | 14 W/m² | - |
| 1777513853 | 15° C | 18% | 1022.1 hPa | 0 mm | - | 16 W/m² | - |
| 1777513550 | 15° C | 18% | 1022.1 hPa | 0 mm | - | 16 W/m² | - |
| 1777513247 | 15° C | 18% | 1022 hPa | 0 mm | - | 22 W/m² | - |
| 1777512943 | 15° C | 17% | 1022.3 hPa | 0 mm | - | 32 W/m² | - |
| 1777512640 | 15° C | 17% | 1022.1 hPa | 0 mm | - | 34 W/m² | - |
| 1777512337 | 15° C | 17% | 1021.9 hPa | 0 mm | - | 38 W/m² | - |
| 1777512033 | 15.56° C | 16% | 1022.1 hPa | 0 mm | - | 45 W/m² | - |
| 1777511732 | 15.56° C | 16% | 1022.3 hPa | 0 mm | - | 39 W/m² | - |
| 1777511429 | 15.56° C | 16% | 1022 hPa | 0 mm | - | 42 W/m² | - |
| 1777511126 | 15.56° C | 16% | 1022.1 hPa | 0 mm | - | 42 W/m² | - |
| 1777510821 | 15.56° C | 15% | 1022.1 hPa | 0 mm | - | 50 W/m² | - |
| 1777510518 | 15.56° C | 16% | 1022 hPa | 0 mm | - | 55 W/m² | - |
| 1777510214 | 15.56° C | 16% | 1022.1 hPa | 0 mm | - | 65 W/m² | - |
| 1777509911 | 16.11° C | 16% | 1022.1 hPa | 0 mm | - | 70 W/m² | - |
| 1777509606 | 16.11° C | 15% | 1022 hPa | 0 mm | - | 76 W/m² | - |
* Rain latest hour (hover to see other rain measurements)
** Current wind speed in m/s (hover to see current wind gust speed)